Time,TemperatureF,DewpointF,PressureIn,WindDirection,WindDirectionDegrees,WindSpeedMPH,WindSpeedGustMPH,Humidity,HourlyPrecipIn,Conditions,Clouds,dailyrainin,SolarRadiationWatts/m^2,SoftwareType,DateUTC
2013-05-25 00:07:00,53.1,52.0,29.76,NNW,340,5.0,-999.0,97,-99.99,,,0.00,0,weatherlink.com 1.10,2013-05-25 04:07:00,
2013-05-25 00:22:00,52.6,52.0,29.75,NNW,329,10.0,-999.0,97,-99.99,,,0.00,0,weatherlink.com 1.10,2013-05-25 04:22:00,
2013-05-25 00:37:00,52.3,52.0,29.75,North,355,10.0,-999.0,97,-99.99,,,0.00,0,weatherlink.com 1.10,2013-05-25 04:37:00,
2013-05-25 00:52:00,51.9,51.0,29.75,North,5,17.0,-999.0,97,-99.99,,,0.00,0,weatherlink.com 1.10,2013-05-25 04:52:00,
2013-05-25 01:07:00,51.7,51.0,29.75,North,9,9.0,-999.0,97,-99.99,,,0.00,0,weatherlink.com 1.10,2013-05-25 05:07:00,
2013-05-25 01:22:00,51.6,51.0,29.74,North,350,7.0,-999.0,97,-99.99,,,0.00,0,weatherlink.com 1.10,2013-05-25 05:22:00,
2013-05-25 01:37:00,51.3,51.0,29.75,North,360,10.0,-999.0,97,-99.99,,,0.02,0,weatherlink.com 1.10,2013-05-25 05:37:00,
2013-05-25 01:52:00,51.2,50.0,29.74,North,355,15.0,-999.0,97,-99.99,,,0.05,0,weatherlink.com 1.10,2013-05-25 05:52:00,
2013-05-25 02:07:00,51.2,50.0,29.73,North,5,9.0,-999.0,97,-99.99,,,0.06,0,weatherlink.com 1.10,2013-05-25 06:07:00,
2013-05-25 02:22:00,51.0,50.0,29.73,NNE,13,7.0,-999.0,97,-99.99,,,0.06,0,weatherlink.com 1.10,2013-05-25 06:22:00,
2013-05-25 02:37:00,50.9,50.0,29.73,NNE,12,9.0,-999.0,97,-99.99,,,0.07,0,weatherlink.com 1.10,2013-05-25 06:37:00,
2013-05-25 02:52:00,50.8,50.0,29.73,North,350,10.0,-999.0,97,-99.99,,,0.07,0,weatherlink.com 1.10,2013-05-25 06:52:00,
2013-05-25 03:07:00,50.7,50.0,29.73,NNE,16,7.0,-999.0,97,-99.99,,,0.08,0,weatherlink.com 1.10,2013-05-25 07:07:00,
2013-05-25 03:22:00,50.6,50.0,29.73,North,5,8.0,-999.0,97,-99.99,,,0.08,0,weatherlink.com 1.10,2013-05-25 07:22:00,
2013-05-25 03:37:00,50.5,50.0,29.72,NNW,344,7.0,-999.0,97,-99.99,,,0.08,0,weatherlink.com 1.10,2013-05-25 07:37:00,
2013-05-25 03:52:00,50.5,50.0,29.71,NNW,346,6.0,-999.0,98,-99.99,,,0.09,0,weatherlink.com 1.10,2013-05-25 07:52:00,
2013-05-25 04:07:00,50.6,50.0,29.72,NNE,13,6.0,-999.0,98,-99.99,,,0.09,0,weatherlink.com 1.10,2013-05-25 08:07:00,
2013-05-25 04:22:00,50.5,50.0,29.70,NNW,335,6.0,-999.0,98,-99.99,,,0.10,0,weatherlink.com 1.10,2013-05-25 08:22:00,
2013-05-25 04:38:00,50.4,50.0,29.70,NNW,344,8.0,-999.0,98,-99.99,,,0.10,0,weatherlink.com 1.10,2013-05-25 08:38:00,
2013-05-25 04:53:00,50.3,50.0,29.71,North,355,8.0,-999.0,98,-99.99,,,0.10,0,weatherlink.com 1.10,2013-05-25 08:53:00,
2013-05-25 05:08:00,50.2,50.0,29.71,NNW,344,6.0,-999.0,98,-99.99,,,0.10,0,weatherlink.com 1.10,2013-05-25 09:08:00,
2013-05-25 05:23:00,49.9,49.0,29.71,NW,326,8.0,-999.0,98,-99.99,,,0.10,0,weatherlink.com 1.10,2013-05-25 09:23:00,
2013-05-25 05:53:00,49.5,49.0,29.72,NNW,342,8.0,-999.0,97,-99.99,,,0.11,9,weatherlink.com 1.10,2013-05-25 09:53:00,
2013-05-25 06:08:00,49.3,49.0,29.73,NNW,333,5.0,-999.0,98,-99.99,,,0.12,14,weatherlink.com 1.10,2013-05-25 10:08:00,
2013-05-25 06:23:00,49.1,49.0,29.73,North,355,6.0,-999.0,98,-99.99,,,0.12,25,weatherlink.com 1.10,2013-05-25 10:23:00,
2013-05-25 06:38:00,49.2,49.0,29.73,North,360,5.0,-999.0,98,-99.99,,,0.12,26,weatherlink.com 1.10,2013-05-25 10:38:00,
2013-05-25 06:53:00,49.2,49.0,29.73,NNW,346,5.0,-999.0,98,-99.99,,,0.12,58,weatherlink.com 1.10,2013-05-25 10:53:00,
2013-05-25 07:08:00,48.9,48.0,29.72,NNE,19,7.0,-999.0,97,-99.99,,,0.13,74,weatherlink.com 1.10,2013-05-25 11:08:00,
2013-05-25 07:23:00,49.2,49.0,29.71,North,5,6.0,-999.0,98,-99.99,,,0.13,128,weatherlink.com 1.10,2013-05-25 11:23:00,
2013-05-25 07:38:00,49.4,49.0,29.71,NNW,348,7.0,-999.0,98,-99.99,,,0.13,171,weatherlink.com 1.10,2013-05-25 11:38:00,
2013-05-25 07:53:00,49.6,49.0,29.72,North,355,8.0,-999.0,98,-99.99,,,0.13,113,weatherlink.com 1.10,2013-05-25 11:53:00,
2013-05-25 08:08:00,49.6,49.0,29.72,North,355,6.0,-999.0,98,-99.99,,,0.13,192,weatherlink.com 1.10,2013-05-25 12:08:00,
2013-05-25 08:23:00,49.7,49.0,29.72,NNW,344,6.0,-999.0,97,-99.99,,,0.13,209,weatherlink.com 1.10,2013-05-25 12:23:00,
2013-05-25 08:38:00,49.8,49.0,29.71,North,355,7.0,-999.0,98,-99.99,,,0.13,294,weatherlink.com 1.10,2013-05-25 12:38:00,
2013-05-25 08:53:00,49.9,49.0,29.72,NNE,17,10.0,-999.0,97,-99.99,,,0.13,218,weatherlink.com 1.10,2013-05-25 12:53:00,
2013-05-25 09:08:00,50.2,49.0,29.71,NNW,348,5.0,-999.0,97,-99.99,,,0.13,199,weatherlink.com 1.10,2013-05-25 13:08:00,
2013-05-25 09:23:00,50.6,50.0,29.71,NNW,342,12.0,-999.0,97,-99.99,,,0.13,420,weatherlink.com 1.10,2013-05-25 13:23:00,
2013-05-25 09:38:00,51.4,50.0,29.70,NNW,340,10.0,-999.0,96,-99.99,,,0.13,483,weatherlink.com 1.10,2013-05-25 13:38:00,
2013-05-25 09:53:00,51.8,51.0,29.70,NW,317,6.0,-999.0,95,-99.99,,,0.13,320,weatherlink.com 1.10,2013-05-25 13:53:00,
2013-05-25 10:08:00,52.0,50.0,29.69,NW,306,9.0,-999.0,94,-99.99,,,0.13,302,weatherlink.com 1.10,2013-05-25 14:08:00,
2013-05-25 10:23:00,52.1,50.0,29.69,NNW,339,12.0,-999.0,92,-99.99,,,0.13,533,weatherlink.com 1.10,2013-05-25 14:23:00,
2013-05-25 10:38:00,52.3,50.0,29.68,NNW,348,7.0,-999.0,91,-99.99,,,0.13,243,weatherlink.com 1.10,2013-05-25 14:38:00,
2013-05-25 10:53:00,52.2,49.0,29.68,NNW,342,14.0,-999.0,90,-99.99,,,0.13,244,weatherlink.com 1.10,2013-05-25 14:53:00,
2013-05-25 11:08:00,52.2,49.0,29.69,North,10,7.0,-999.0,90,-99.99,,,0.13,255,weatherlink.com 1.10,2013-05-25 15:08:00,
2013-05-25 11:23:00,52.4,49.0,29.69,North,355,7.0,-999.0,88,-99.99,,,0.13,283,weatherlink.com 1.10,2013-05-25 15:23:00,
2013-05-25 11:38:00,52.9,50.0,29.70,NNW,344,1.0,-999.0,89,-99.99,,,0.13,225,weatherlink.com 1.10,2013-05-25 15:38:00,
2013-05-25 11:53:00,52.9,50.0,29.70,NNW,339,2.0,-999.0,88,-99.99,,,0.13,176,weatherlink.com 1.10,2013-05-25 15:53:00,
2013-05-25 12:08:00,52.7,50.0,29.69,NNW,342,5.0,-999.0,90,-99.99,,,0.13,243,weatherlink.com 1.10,2013-05-25 16:08:00,
2013-05-25 12:23:00,52.3,50.0,29.69,NNW,348,2.0,-999.0,90,-99.99,,,0.13,329,weatherlink.com 1.10,2013-05-25 16:23:00,
2013-05-25 12:38:00,52.2,50.0,29.69,North,5,5.0,-999.0,91,-99.99,,,0.13,243,weatherlink.com 1.10,2013-05-25 16:38:00,
2013-05-25 12:53:00,52.2,50.0,29.69,North,350,4.0,-999.0,92,-99.99,,,0.13,248,weatherlink.com 1.10,2013-05-25 16:53:00,
2013-05-25 13:08:00,52.1,50.0,29.69,North,355,5.0,-999.0,92,-99.99,,,0.13,279,weatherlink.com 1.10,2013-05-25 17:08:00,
2013-05-25 13:23:00,52.2,50.0,29.68,NW,308,6.0,-999.0,93,-99.99,,,0.13,455,weatherlink.com 1.10,2013-05-25 17:23:00,
2013-05-25 13:38:00,52.2,50.0,29.68,North,351,2.0,-999.0,93,-99.99,,,0.13,332,weatherlink.com 1.10,2013-05-25 17:38:00,
2013-05-25 13:53:00,52.2,51.0,29.68,North,355,5.0,-999.0,94,-99.99,,,0.13,341,weatherlink.com 1.10,2013-05-25 17:53:00,
2013-05-25 14:08:00,52.3,50.0,29.68,North,351,4.0,-999.0,93,-99.99,,,0.13,301,weatherlink.com 1.10,2013-05-25 18:08:00,
2013-05-25 14:23:00,52.4,51.0,29.68,NNW,346,8.0,-999.0,93,-99.99,,,0.14,241,weatherlink.com 1.10,2013-05-25 18:23:00,
2013-05-25 14:38:00,52.8,51.0,29.67,NNW,328,4.0,-999.0,94,-99.99,,,0.14,295,weatherlink.com 1.10,2013-05-25 18:38:00,
2013-05-25 14:53:00,52.7,51.0,29.66,NNW,332,5.0,-999.0,94,-99.99,,,0.14,401,weatherlink.com 1.10,2013-05-25 18:53:00,
2013-05-25 15:08:00,53.3,52.0,29.66,NNW,345,8.0,-999.0,95,-99.99,,,0.15,285,weatherlink.com 1.10,2013-05-25 19:08:00,
2013-05-25 15:23:00,53.4,52.0,29.66,North,355,6.0,-999.0,94,-99.99,,,0.15,248,weatherlink.com 1.10,2013-05-25 19:23:00,
2013-05-25 15:38:00,53.2,51.0,29.66,NW,311,6.0,-999.0,93,-99.99,,,0.15,265,weatherlink.com 1.10,2013-05-25 19:38:00,
2013-05-25 15:53:00,53.0,51.0,29.65,NW,306,4.0,-999.0,94,-99.99,,,0.15,220,weatherlink.com 1.10,2013-05-25 19:53:00,
2013-05-25 16:08:00,52.6,51.0,29.66,NNW,346,9.0,-999.0,94,-99.99,,,0.15,232,weatherlink.com 1.10,2013-05-25 20:08:00,
2013-05-25 16:23:00,52.5,51.0,29.66,NW,313,5.0,-999.0,94,-99.99,,,0.15,155,weatherlink.com 1.10,2013-05-25 20:23:00,
2013-05-25 16:38:00,52.2,51.0,29.65,NNW,342,5.0,-999.0,94,-99.99,,,0.15,121,weatherlink.com 1.10,2013-05-25 20:38:00,
2013-05-25 16:53:00,52.1,51.0,29.66,NNW,346,4.0,-999.0,94,-99.99,,,0.16,113,weatherlink.com 1.10,2013-05-25 20:53:00,
2013-05-25 17:08:00,51.0,49.0,29.66,NNW,338,6.0,-999.0,94,-99.99,,,0.16,86,weatherlink.com 1.10,2013-05-25 21:08:00,
2013-05-25 17:23:00,50.3,49.0,29.66,NNW,331,4.0,-999.0,95,-99.99,,,0.16,93,weatherlink.com 1.10,2013-05-25 21:23:00,
2013-05-25 17:38:00,49.7,48.0,29.66,West,263,4.0,-999.0,95,-99.99,,,0.16,63,weatherlink.com 1.10,2013-05-25 21:38:00,
2013-05-25 17:53:00,49.1,48.0,29.66,NNW,329,7.0,-999.0,95,-99.99,,,0.17,58,weatherlink.com 1.10,2013-05-25 21:53:00,
2013-05-25 18:08:00,48.1,47.0,29.67,NNW,340,7.0,-999.0,94,-99.99,,,0.17,70,weatherlink.com 1.10,2013-05-25 22:08:00,
2013-05-25 18:24:00,47.4,46.0,29.67,NW,321,8.0,-999.0,95,-99.99,,,0.17,46,weatherlink.com 1.10,2013-05-25 22:24:00,
2013-05-25 18:39:00,46.7,45.0,29.68,WNW,302,5.0,-999.0,94,-99.99,,,0.18,40,weatherlink.com 1.10,2013-05-25 22:39:00,
2013-05-25 18:54:00,46.4,45.0,29.69,NW,325,5.0,-999.0,95,-99.99,,,0.18,23,weatherlink.com 1.10,2013-05-25 22:54:00,
2013-05-25 19:09:00,46.2,45.0,29.69,NNW,344,6.0,-999.0,95,-99.99,,,0.18,12,weatherlink.com 1.10,2013-05-25 23:09:00,
2013-05-25 19:24:00,45.7,44.0,29.69,NW,326,5.0,-999.0,95,-99.99,,,0.18,11,weatherlink.com 1.10,2013-05-25 23:24:00,
2013-05-25 19:39:00,45.4,44.0,29.69,NNW,340,5.0,-999.0,95,-99.99,,,0.19,7,weatherlink.com 1.10,2013-05-25 23:39:00,
2013-05-25 19:54:00,45.1,44.0,29.69,NW,314,6.0,-999.0,95,-99.99,,,0.20,5,weatherlink.com 1.10,2013-05-25 23:54:00,
2013-05-25 20:09:00,44.7,43.0,29.69,NNW,342,6.0,-999.0,95,-99.99,,,0.20,0,weatherlink.com 1.10,2013-05-26 00:09:00,
2013-05-25 20:24:00,44.2,43.0,29.69,NNW,336,4.0,-999.0,95,-99.99,,,0.21,0,weatherlink.com 1.10,2013-05-26 00:24:00,
2013-05-25 20:39:00,44.0,43.0,29.70,North,360,7.0,-999.0,95,-99.99,,,0.21,0,weatherlink.com 1.10,2013-05-26 00:39:00,
2013-05-25 20:54:00,43.8,43.0,29.70,NW,317,5.0,-999.0,95,-99.99,,,0.21,0,weatherlink.com 1.10,2013-05-26 00:54:00,
2013-05-25 21:09:00,43.7,43.0,29.70,NW,322,4.0,-999.0,96,-99.99,,,0.21,0,weatherlink.com 1.10,2013-05-26 01:09:00,
2013-05-25 21:24:00,43.6,43.0,29.70,NW,306,5.0,-999.0,96,-99.99,,,0.22,0,weatherlink.com 1.10,2013-05-26 01:24:00,
2013-05-25 21:39:00,43.2,42.0,29.70,NNW,336,7.0,-999.0,95,-99.99,,,0.22,0,weatherlink.com 1.10,2013-05-26 01:39:00,
2013-05-25 21:54:00,43.1,42.0,29.70,WNW,302,4.0,-999.0,95,-99.99,,,0.22,0,weatherlink.com 1.10,2013-05-26 01:54:00,
2013-05-25 22:09:00,43.0,42.0,29.71,WNW,290,8.0,-999.0,95,-99.99,,,0.22,0,weatherlink.com 1.10,2013-05-26 02:09:00,
2013-05-25 22:24:00,43.0,42.0,29.70,NW,323,6.0,-999.0,95,-99.99,,,0.22,0,weatherlink.com 1.10,2013-05-26 02:24:00,
2013-05-25 22:39:00,42.9,42.0,29.71,WNW,290,4.0,-999.0,95,-99.99,,,0.22,0,weatherlink.com 1.10,2013-05-26 02:39:00,
2013-05-25 22:54:00,42.9,41.0,29.71,WNW,299,2.0,-999.0,94,-99.99,,,0.22,0,weatherlink.com 1.10,2013-05-26 02:54:00,
2013-05-25 23:09:00,42.9,41.0,29.71,NW,304,4.0,-999.0,94,-99.99,,,0.22,0,weatherlink.com 1.10,2013-05-26 03:09:00,
2013-05-25 23:24:00,42.8,41.0,29.70,NNW,333,9.0,-999.0,94,-99.99,,,0.22,0,weatherlink.com 1.10,2013-05-26 03:24:00,
2013-05-25 23:39:00,42.8,41.0,29.70,NW,321,7.0,-999.0,94,-99.99,,,0.22,0,weatherlink.com 1.10,2013-05-26 03:39:00,
2013-05-25 23:54:00,42.7,41.0,29.70,WNW,288,2.0,-999.0,93,-99.99,,,0.22,0,weatherlink.com 1.10,2013-05-26 03:54:00,